| time (UTC) | temp F | wind direction | speed MPH | gust MPH | rain 1hr in | rain 24hr in | rain mn in | humidity % | barometer mb |
| 20260903081459 | 65 | 195 | 5.0 | 10.0 | 0.02 | 0.02 | 0.02 | 88 | 1016.1 |
| 20260903080951 | 65 | 200 | 4.0 | 9.0 | 0.02 | 0.02 | 0.02 | 88 | 1016.1 |
| 20260903080541 | 65 | 203 | 5.0 | 10.0 | 0.02 | 0.02 | 0.02 | 87 | 1016.1 |
| 20260903080334 | 65 | 242 | 5.0 | 11.0 | 0.01 | 0.01 | 0.02 | 86 | 1016.1 |
| 20260903075523 | 65 | 228 | 4.0 | 11.0 | 0.00 | 0.00 | 0.00 | 85 | 1016.1 |
| 20260903075014 | 65 | 213 | 4.0 | 8.0 | 0.00 | 0.00 | 0.00 | 84 | 1016.2 |
| 20260903074507 | 65 | 171 | 4.0 | 10.0 | 0.00 | 0.00 | 0.00 | 84 | 1016.3 |
| 20260903074003 | 65 | 187 | 5.0 | 10.0 | 0.00 | 0.00 | 0.00 | 83 | 1016.1 |
| 20260903073453 | 65 | 189 | 5.0 | 10.0 | 0.00 | 0.00 | 0.00 | 83 | 1016.1 |
| 20260903073345 | 65 | 213 | 5.0 | 10.0 | 0.00 | 0.00 | 0.00 | 83 | 1016.0 |
| 20260903073043 | 65 | 205 | 5.0 | 10.0 | 0.00 | 0.00 | 0.00 | 83 | 1016.0 |
| 20260903072034 | 65 | 213 | 5.0 | 9.0 | 0.00 | 0.00 | 0.00 | 82 | 1016.1 |
| 20260903071526 | 65 | 222 | 4.0 | 10.0 | 0.00 | 0.00 | 0.00 | 82 | 1016.0 |
| 20260903071017 | 65 | 191 | 5.0 | 10.0 | 0.00 | 0.00 | 0.00 | 81 | 1016.1 |
| 20260903070510 | 65 | 194 | 5.0 | 12.0 | 0.00 | 0.00 | 0.00 | 81 | 1016.1 |
| 20260903070258 | 65 | 190 | 5.0 | 10.0 | 0.00 | 0.00 | 0.00 | 81 | 1016.0 |
| 20260903065958 | 65 | 196 | 5.0 | 12.0 | 0.00 | 0.00 | 0.00 | 81 | 1016.1 |
| 20260903064949 | 65 | 188 | 6.0 | 11.0 | 0.00 | 0.00 | 0.00 | 81 | 1016.0 |
| 20260903064836 | 65 | 210 | 5.0 | 11.0 | 0.00 | 0.00 | 0.00 | 80 | 1016.0 |
| 20260903064529 | 65 | 191 | 6.0 | 11.0 | 0.00 | 0.00 | 0.00 | 80 | 1016.0 |
| 20260903064026 | 65 | 169 | 5.0 | 11.0 | 0.00 | 0.00 | 0.00 | 80 | 1016.0 |
| 20260903063013 | 65 | 211 | 5.0 | 9.0 | 0.00 | 0.00 | 0.00 | 80 | 1015.9 |
| 20260903062505 | 65 | 185 | 5.0 | 12.0 | 0.00 | 0.00 | 0.00 | 80 | 1015.9 |
| 20260903061955 | 65 | 148 | 5.0 | 13.0 | 0.00 | 0.00 | 0.00 | 79 | 1015.8 |
| 20260903061446 | 65 | 198 | 5.0 | 13.0 | 0.00 | 0.00 | 0.00 | 79 | 1015.8 |
| 20260903060938 | 65 | 229 | 6.0 | 12.0 | 0.00 | 0.00 | 0.00 | 78 | 1015.6 |
| 20260903060531 | 65 | 183 | 5.0 | 12.0 | 0.00 | 0.00 | 0.00 | 78 | 1015.6 |
| 20260903060024 | 65 | 174 | 5.0 | 10.0 | 0.00 | 0.00 | 0.00 | 78 | 1015.7 |
| 20260903055517 | 65 | 170 | 6.0 | 10.0 | 0.00 | 0.00 | 0.00 | 77 | 1015.8 |
| 20260903055009 | 65 | 210 | 6.0 | 13.0 | 0.00 | 0.00 | 0.00 | 76 | 1015.9 |
| 20260903054859 | 65 | 183 | 5.0 | 13.0 | 0.00 | 0.00 | 0.00 | 76 | 1016.0 |
| 20260903054350 | 65 | 179 | 5.0 | 11.0 | 0.00 | 0.00 | 0.00 | 76 | 1016.0 |
| 20260903053444 | 65 | 243 | 5.0 | 11.0 | 0.00 | 0.00 | 0.00 | 76 | 1016.0 |
| 20260903053331 | 65 | 170 | 5.0 | 10.0 | 0.00 | 0.00 | 0.00 | 76 | 1015.9 |
| 20260903052540 | 65 | 182 | 5.0 | 9.0 | 0.00 | 0.00 | 0.00 | 75 | 1015.8 |
| 20260903052319 | 65 | 185 | 5.0 | 9.0 | 0.00 | 0.00 | 0.00 | 75 | 1015.9 |
| 20260903051510 | 65 | 171 | 5.0 | 9.0 | 0.00 | 0.00 | 0.00 | 75 | 1015.8 |
| 20260903051258 | 65 | 185 | 5.0 | 12.0 | 0.00 | 0.00 | 0.00 | 76 | 1015.6 |
| 20260903050951 | 65 | 173 | 5.0 | 9.0 | 0.00 | 0.00 | 0.00 | 76 | 1015.7 |
| 20260903050447 | 65 | 164 | 5.0 | 12.0 | 0.00 | 0.00 | 0.00 | 76 | 1015.5 |
| 20260903045438 | 65 | 218 | 5.0 | 10.0 | 0.00 | 0.00 | 0.00 | 76 | 1015.7 |
| 20260903044927 | 65 | 193 | 5.0 | 10.0 | 0.00 | 0.00 | 0.00 | 75 | 1015.7 |
| 20260903044419 | 65 | 184 | 5.0 | 13.0 | 0.00 | 0.00 | 0.00 | 75 | 1015.8 |
| 20260903044011 | 65 | 201 | 5.0 | 13.0 | 0.00 | 0.00 | 0.00 | 75 | 1016.0 |
| 20260903043516 | 65 | 201 | 5.0 | 13.0 | 0.00 | 0.00 | 0.00 | 75 | 1016.0 |
| 20260903042956 | 65 | 230 | 5.0 | 13.0 | 0.00 | 0.00 | 0.00 | 75 | 1016.1 |
| 20260903042447 | 65 | 200 | 6.0 | 10.0 | 0.00 | 0.00 | 0.00 | 74 | 1016.0 |
| 20260903041939 | 65 | 203 | 6.0 | 15.0 | 0.00 | 0.00 | 0.00 | 74 | 1016.3 |
| 20260903041428 | 65 | 210 | 5.0 | 15.0 | 0.00 | 0.00 | 0.00 | 74 | 1016.2 |
| 20260903040919 | 65 | 227 | 5.0 | 10.0 | 0.00 | 0.00 | 0.00 | 74 | 1016.3 |
| 20260903040509 | 65 | 230 | 6.0 | 15.0 | 0.00 | 0.00 | 0.00 | 75 | 1016.3 |
| 20260903040304 | 65 | 239 | 6.0 | 15.0 | 0.00 | 0.00 | 0.00 | 75 | 1016.0 |
| 20260903035755 | 65 | 177 | 6.0 | 14.0 | 0.00 | 0.00 | 0.00 | 76 | 1016.0 |
| 20260903034945 | 65 | 173 | 7.0 | 14.0 | 0.00 | 0.00 | 0.00 | 76 | 1015.8 |
| 20260903034737 | 65 | 175 | 7.0 | 13.0 | 0.00 | 0.00 | 0.00 | 76 | 1015.9 |
| 20260903034229 | 65 | 213 | 6.0 | 13.0 | 0.00 | 0.00 | 0.00 | 76 | 1015.9 |
| 20260903033419 | 65 | 224 | 6.0 | 10.0 | 0.00 | 0.00 | 0.00 | 76 | 1015.9 |
| 20260903033011 | 65 | 193 | 5.0 | 12.0 | 0.00 | 0.00 | 0.00 | 76 | 1016.0 |
| 20260903032802 | 65 | 192 | 4.0 | 12.0 | 0.00 | 0.00 | 0.00 | 76 | 1016.3 |
| 20260903031951 | 65 | 188 | 4.0 | 10.0 | 0.00 | 0.00 | 0.00 | 76 | 1016.3 |
| 20260903031441 | 64 | 192 | 4.0 | 10.0 | 0.00 | 0.00 | 0.00 | 76 | 1016.3 |
| 20260903030933 | 64 | 191 | 5.0 | 10.0 | 0.00 | 0.00 | 0.00 | 76 | 1016.3 |
| 20260903030425 | 64 | 212 | 5.0 | 10.0 | 0.00 | 0.00 | 0.00 | 76 | 1016.4 |
| 20260903025919 | 64 | 190 | 4.0 | 10.0 | 0.00 | 0.00 | 0.00 | 76 | 1016.5 |
| 20260903025511 | 64 | 197 | 4.0 | 9.0 | 0.00 | 0.00 | 0.00 | 76 | 1016.7 |
| 20260903025005 | 64 | 207 | 5.0 | 9.0 | 0.00 | 0.00 | 0.00 | 77 | 1016.7 |
| 20260903024551 | 64 | 195 | 4.0 | 9.0 | 0.00 | 0.00 | 0.00 | 77 | 1016.6 |
| 20260903024244 | 64 | 169 | 5.0 | 9.0 | 0.00 | 0.00 | 0.00 | 78 | 1016.6 |
| 20260903024140 | 64 | 191 | 5.0 | 9.0 | 0.00 | 0.00 | 0.00 | 77 | 1016.6 |
| 20260903023024 | 64 | 172 | 5.0 | 10.0 | 0.00 | 0.00 | 0.00 | 78 | 1016.5 |
| 20260903022521 | 64 | 175 | 4.0 | 10.0 | 0.00 | 0.00 | 0.00 | 78 | 1016.5 |
| 20260903022009 | 64 | 170 | 4.0 | 7.0 | 0.00 | 0.00 | 0.00 | 79 | 1016.6 |
| 20260903021559 | 64 | 200 | 4.0 | 7.0 | 0.00 | 0.00 | 0.00 | 79 | 1016.6 |
| 20260903021059 | 64 | 193 | 4.0 | 7.0 | 0.00 | 0.00 | 0.00 | 79 | 1016.6 |
| 20260903020548 | 64 | 191 | 4.0 | 12.0 | 0.00 | 0.00 | 0.00 | 79 | 1016.7 |
| 20260903020053 | 64 | 199 | 5.0 | 12.0 | 0.00 | 0.00 | 0.00 | 79 | 1016.6 |
| 20260903015533 | 64 | 201 | 4.0 | 8.0 | 0.00 | 0.00 | 0.00 | 79 | 1016.6 |
| 20260903015025 | 64 | 168 | 4.0 | 8.0 | 0.00 | 0.00 | 0.00 | 79 | 1016.8 |
| 20260903014825 | 64 | 188 | 3.0 | 7.0 | 0.00 | 0.00 | 0.00 | 79 | 1016.9 |
| 20260903014006 | 64 | 176 | 3.0 | 7.0 | 0.00 | 0.00 | 0.00 | 79 | 1016.9 |
| 20260903013555 | 64 | 170 | 3.0 | 9.0 | 0.00 | 0.00 | 0.00 | 79 | 1017.0 |
| 20260903013045 | 64 | 167 | 3.0 | 9.0 | 0.00 | 0.00 | 0.00 | 78 | 1017.0 |
| 20260903012542 | 64 | 205 | 4.0 | 7.0 | 0.00 | 0.00 | 0.00 | 78 | 1017.0 |
| 20260903012033 | 65 | 179 | 4.0 | 7.0 | 0.00 | 0.00 | 0.00 | 78 | 1017.0 |
| 20260903011526 | 65 | 171 | 3.0 | 7.0 | 0.00 | 0.00 | 0.00 | 78 | 1017.2 |
| 20260903011018 | 65 | 196 | 3.0 | 7.0 | 0.00 | 0.00 | 0.00 | 77 | 1017.3 |
| 20260903010507 | 65 | 210 | 4.0 | 7.0 | 0.00 | 0.00 | 0.00 | 77 | 1017.4 |
| 20260903005959 | 65 | 181 | 5.0 | 10.0 | 0.00 | 0.00 | 0.00 | 77 | 1017.5 |
| 20260903005547 | 65 | 220 | 5.0 | 11.0 | 0.00 | 0.00 | 0.00 | 77 | 1017.5 |
| 20260903005040 | 65 | 208 | 4.0 | 11.0 | 0.00 | 0.00 | 0.00 | 77 | 1017.4 |
| 20260903004529 | 65 | 231 | 4.0 | 10.0 | 0.00 | 0.00 | 0.00 | 77 | 1017.5 |
| 20260903004025 | 64 | 204 | 4.0 | 10.0 | 0.00 | 0.00 | 0.00 | 78 | 1017.6 |
| 20260903003517 | 64 | 193 | 4.0 | 10.0 | 0.00 | 0.00 | 0.00 | 78 | 1017.7 |
| 20260903003010 | 64 | 193 | 3.0 | 6.0 | 0.00 | 0.00 | 0.00 | 78 | 1017.6 |
| 20260903002811 | 64 | 173 | 3.0 | 6.0 | 0.00 | 0.00 | 0.00 | 78 | 1017.6 |
| 20260903001954 | 64 | 188 | 3.0 | 7.0 | 0.00 | 0.00 | 0.00 | 78 | 1017.6 |
| 20260903001444 | 64 | 179 | 3.0 | 7.0 | 0.00 | 0.00 | 0.00 | 78 | 1017.6 |
| 20260903001031 | 64 | 212 | 4.0 | 7.0 | 0.00 | 0.00 | 0.00 | 77 | 1017.6 |
| 20260903000520 | 64 | 203 | 4.0 | 7.0 | 0.00 | 0.00 | 0.00 | 77 | 1017.7 |
| 20260903000024 | 64 | 181 | 4.0 | 8.0 | 0.00 | 0.00 | 0.00 | 78 | 1017.9 |
| 20260903000012 | 64 | 193 | 3.0 | 7.0 | 0.00 | 0.00 | 0.00 | 77 | 1017.9 |
| 20260902235001 | 64 | 181 | 3.0 | 8.0 | 0.00 | 0.00 | 0.00 | 78 | 1018.0 |
| 20260902234452 | 64 | 189 | 1.0 | 6.0 | 0.00 | 0.00 | 0.00 | 78 | 1018.1 |
| 20260902233944 | 64 | 166 | 1.0 | 4.0 | 0.00 | 0.00 | 0.00 | 79 | 1018.2 |
| 20260902233531 | 64 | 228 | 2.0 | 4.0 | 0.00 | 0.00 | 0.00 | 78 | 1018.2 |
| 20260902233022 | 64 | 181 | 2.0 | 5.0 | 0.00 | 0.00 | 0.00 | 79 | 1018.1 |
| 20260902232519 | 64 | 213 | 2.0 | 5.0 | 0.00 | 0.00 | 0.00 | 79 | 1018.1 |
| 20260902232008 | 64 | 185 | 3.0 | 6.0 | 0.00 | 0.00 | 0.00 | 79 | 1018.0 |
| 20260902231458 | 64 | 191 | 3.0 | 7.0 | 0.00 | 0.00 | 0.00 | 79 | 1018.1 |
| 20260902230956 | 64 | 183 | 3.0 | 7.0 | 0.00 | 0.00 | 0.00 | 79 | 1018.1 |
| 20260902230448 | 64 | 177 | 2.0 | 5.0 | 0.00 | 0.00 | 0.00 | 79 | 1018.2 |
| 20260902225934 | 64 | 203 | 1.0 | 5.0 | 0.00 | 0.00 | 0.00 | 80 | 1018.4 |
| 20260902225522 | 64 | 203 | 1.0 | 5.0 | 0.00 | 0.00 | 0.00 | 80 | 1018.5 |
| 20260902225019 | 63 | 180 | 2.0 | 5.0 | 0.00 | 0.00 | 0.00 | 81 | 1018.4 |
| 20260902225013 | 63 | 185 | 2.0 | 5.0 | 0.00 | 0.00 | 0.00 | 80 | 1018.5 |
| 20260902223959 | 63 | 193 | 2.0 | 5.0 | 0.00 | 0.00 | 0.00 | 80 | 1018.4 |
| 20260902223447 | 63 | 184 | 1.0 | 4.0 | 0.00 | 0.00 | 0.00 | 81 | 1018.4 |
| 20260902222941 | 63 | 164 | 0.0 | 5.0 | 0.00 | 0.00 | 0.00 | 80 | 1018.4 |
| 20260902222435 | 63 | 179 | 1.0 | 5.0 | 0.00 | 0.00 | 0.00 | 80 | 1018.4 |
| 20260902222023 | 64 | 185 | 2.0 | 5.0 | 0.00 | 0.00 | 0.00 | 80 | 1018.4 |
| 20260902221514 | 64 | 166 | 2.0 | 5.0 | 0.00 | 0.00 | 0.00 | 80 | 1018.4 |
| 20260902221003 | 64 | 152 | 1.0 | 4.0 | 0.00 | 0.00 | 0.00 | 80 | 1018.4 |
| 20260902220456 | 64 | 171 | 0.0 | 3.0 | 0.00 | 0.00 | 0.00 | 79 | 1018.4 |
| 20260902215947 | 64 | 156 | 1.0 | 5.0 | 0.00 | 0.00 | 0.00 | 79 | 1018.4 |
| 20260902215439 | 64 | 172 | 2.0 | 6.0 | 0.00 | 0.00 | 0.00 | 79 | 1018.3 |
| 20260902214931 | 64 | 179 | 2.0 | 6.0 | 0.00 | 0.00 | 0.00 | 79 | 1018.3 |
| 20260902214520 | 64 | 185 | 2.0 | 6.0 | 0.00 | 0.00 | 0.00 | 79 | 1018.3 |
| 20260902214014 | 64 | 170 | 3.0 | 6.0 | 0.00 | 0.00 | 0.00 | 79 | 1018.5 |
| 20260902213505 | 64 | 179 | 2.0 | 4.0 | 0.00 | 0.00 | 0.00 | 79 | 1018.5 |
| 20260902212955 | 64 | 176 | 2.0 | 4.0 | 0.00 | 0.00 | 0.00 | 79 | 1018.6 |
| 20260902212451 | 64 | 195 | 2.0 | 6.0 | 0.00 | 0.00 | 0.00 | 79 | 1018.7 |
| 20260902211947 | 64 | 173 | 2.0 | 5.0 | 0.00 | 0.00 | 0.00 | 79 | 1018.6 |
| 20260902211942 | 64 | 189 | 2.0 | 6.0 | 0.00 | 0.00 | 0.00 | 79 | 1018.6 |
| 20260902211636 | 64 | 181 | 3.0 | 5.0 | 0.00 | 0.00 | 0.00 | 79 | 1018.7 |
| 20260902210419 | 64 | 206 | 3.0 | 5.0 | 0.00 | 0.00 | 0.00 | 79 | 1018.7 |
| 20260902205912 | 65 | 180 | 3.0 | 5.0 | 0.00 | 0.00 | 0.00 | 79 | 1018.8 |
| 20260902205411 | 65 | 195 | 3.0 | 7.0 | 0.00 | 0.00 | 0.00 | 79 | 1018.7 |
| 20260902204959 | 65 | 183 | 3.0 | 7.0 | 0.00 | 0.00 | 0.00 | 78 | 1018.7 |
| 20260902204448 | 65 | 185 | 3.0 | 6.0 | 0.00 | 0.00 | 0.00 | 78 | 1018.7 |
| 20260902203944 | 65 | 194 | 3.0 | 7.0 | 0.00 | 0.00 | 0.00 | 78 | 1018.7 |
| 20260902203435 | 65 | 180 | 3.0 | 7.0 | 0.00 | 0.00 | 0.00 | 78 | 1018.7 |
| 20260902202928 | 65 | 141 | 2.0 | 6.0 | 0.00 | 0.00 | 0.00 | 77 | 1018.6 |
| 20260902202418 | 65 | 187 | 3.0 | 6.0 | 0.00 | 0.00 | 0.00 | 77 | 1018.7 |
| 20260902201913 | 65 | 157 | 3.0 | 6.0 | 0.00 | 0.00 | 0.00 | 76 | 1018.7 |
| 20260902201406 | 65 | 174 | 2.0 | 6.0 | 0.00 | 0.00 | 0.00 | 76 | 1018.7 |
| 20260902200900 | 65 | 147 | 2.0 | 5.0 | 0.00 | 0.00 | 0.00 | 76 | 1018.8 |
| 20260902200352 | 66 | 170 | 1.0 | 5.0 | 0.00 | 0.00 | 0.00 | 76 | 1018.9 |
| 20260902195949 | 66 | 193 | 0.0 | 0.0 | 0.00 | 0.00 | 0.00 | 76 | 1019.0 |
| 20260902195944 | 66 | 180 | 0.0 | 3.0 | 0.00 | 0.00 | 0.00 | 76 | 1019.0 |
| 20260902195640 | 66 | 181 | 0.0 | 0.0 | 0.00 | 0.00 | 0.00 | 76 | 1018.9 |
| 20260902194422 | 66 | 175 | 0.0 | 0.0 | 0.00 | 0.00 | 0.00 | 76 | 1018.9 |
| 20260902193915 | 66 | 174 | 0.0 | 0.0 | 0.00 | 0.00 | 0.00 | 75 | 1018.9 |
| 20260902193409 | 66 | 197 | 0.0 | 0.0 | 0.00 | 0.00 | 0.00 | 76 | 1019.0 |
| 20260902192909 | 66 | 179 | 0.0 | 0.0 | 0.00 | 0.00 | 0.00 | 75 | 1018.9 |
| 20260902192904 | 66 | 197 | 0.0 | 0.0 | 0.00 | 0.00 | 0.00 | 76 | 1019.0 |
| 20260902191849 | 66 | 168 | 0.0 | 0.0 | 0.00 | 0.00 | 0.00 | 75 | 1018.9 |
| 20260902191339 | 66 | 158 | 0.0 | 0.0 | 0.00 | 0.00 | 0.00 | 75 | 1018.9 |
| 20260902190833 | 66 | 172 | 0.0 | 0.0 | 0.00 | 0.00 | 0.00 | 75 | 1018.9 |
| 20260902190335 | 67 | 192 | 0.0 | 3.0 | 0.00 | 0.00 | 0.00 | 74 | 1018.9 |
| 20260902190331 | 66 | 173 | 0.0 | 0.0 | 0.00 | 0.00 | 0.00 | 74 | 1018.9 |
| 20260902185417 | 67 | 192 | 1.0 | 3.0 | 0.00 | 0.00 | 0.00 | 74 | 1018.9 |
| 20260902184911 | 67 | 195 | 1.0 | 3.0 | 0.00 | 0.00 | 0.00 | 74 | 1018.9 |
| 20260902184402 | 67 | 222 | 1.0 | 5.0 | 0.00 | 0.00 | 0.00 | 73 | 1018.9 |
| 20260902183858 | 67 | 196 | 2.0 | 5.0 | 0.00 | 0.00 | 0.00 | 73 | 1018.9 |
| 20260902183348 | 67 | 211 | 1.0 | 4.0 | 0.00 | 0.00 | 0.00 | 73 | 1018.9 |
| 20260902182840 | 67 | 190 | 1.0 | 5.0 | 0.00 | 0.00 | 0.00 | 73 | 1018.9 |
| 20260902182331 | 67 | 195 | 0.0 | 5.0 | 0.00 | 0.00 | 0.00 | 73 | 1018.9 |
| 20260902181826 | 67 | 187 | 1.0 | 5.0 | 0.00 | 0.00 | 0.00 | 73 | 1018.9 |
| 20260902181315 | 67 | 201 | 2.0 | 5.0 | 0.00 | 0.00 | 0.00 | 73 | 1018.9 |
| 20260902180913 | 68 | 183 | 2.0 | 7.0 | 0.00 | 0.00 | 0.00 | 72 | 1018.8 |
| 20260902180909 | 67 | 194 | 2.0 | 5.0 | 0.00 | 0.00 | 0.00 | 73 | 1018.7 |
| 20260902180904 | 67 | 191 | 2.0 | 5.0 | 0.00 | 0.00 | 0.00 | 73 | 1018.8 |
| 20260902175344 | 68 | 199 | 1.0 | 7.0 | 0.00 | 0.00 | 0.00 | 72 | 1018.8 |
| 20260902174837 | 68 | 193 | 0.0 | 1.0 | 0.00 | 0.00 | 0.00 | 72 | 1018.8 |
| 20260902174329 | 68 | 205 | 1.0 | 5.0 | 0.00 | 0.00 | 0.00 | 72 | 1018.7 |
| 20260902173820 | 68 | 193 | 2.0 | 7.0 | 0.00 | 0.00 | 0.00 | 72 | 1018.7 |
| 20260902173317 | 68 | 201 | 2.0 | 6.0 | 0.00 | 0.00 | 0.00 | 71 | 1018.8 |
| 20260902173313 | 68 | 176 | 2.0 | 7.0 | 0.00 | 0.00 | 0.00 | 71 | 1018.7 |
| 20260902172308 | 68 | 196 | 1.0 | 7.0 | 0.00 | 0.00 | 0.00 | 70 | 1018.8 |
| 20260902171848 | 68 | 242 | 2.0 | 7.0 | 0.00 | 0.00 | 0.00 | 70 | 1018.8 |
| 20260902171341 | 68 | 218 | 3.0 | 7.0 | 0.00 | 0.00 | 0.00 | 70 | 1018.8 |
| 20260902170843 | 68 | 183 | 4.0 | 7.0 | 0.00 | 0.00 | 0.00 | 70 | 1018.7 |
| 20260902170320 | 68 | 222 | 4.0 | 7.0 | 0.00 | 0.00 | 0.00 | 70 | 1018.8 |
| 20260902165816 | 68 | 201 | 4.0 | 8.0 | 0.00 | 0.00 | 0.00 | 69 | 1018.8 |
| 20260902165309 | 68 | 241 | 4.0 | 10.0 | 0.00 | 0.00 | 0.00 | 69 | 1018.8 |
| 20260902164804 | 69 | 201 | 2.0 | 10.0 | 0.00 | 0.00 | 0.00 | 69 | 1018.8 |
| 20260902164800 | 69 | 235 | 2.0 | 6.0 | 0.00 | 0.00 | 0.00 | 72 | 1018.9 |
| 20260902163852 | 69 | 203 | 1.0 | 5.0 | 0.00 | 0.00 | 0.00 | 73 | 1018.9 |
| 20260902163338 | 69 | 249 | 1.0 | 4.0 | 0.00 | 0.00 | 0.00 | 73 | 1018.9 |
| 20260902162828 | 69 | 185 | 1.0 | 4.0 | 0.00 | 0.00 | 0.00 | 73 | 1019.0 |
| 20260902162323 | 69 | 233 | 1.0 | 4.0 | 0.00 | 0.00 | 0.00 | 73 | 1019.0 |
| 20260902161814 | 69 | 210 | 1.0 | 5.0 | 0.00 | 0.00 | 0.00 | 72 | 1019.0 |
| 20260902161305 | 69 | 226 | 1.0 | 5.0 | 0.00 | 0.00 | 0.00 | 72 | 1019.0 |
| 20260902160803 | 69 | 272 | 2.0 | 7.0 | 0.00 | 0.00 | 0.00 | 72 | 1019.0 |
| 20260902160359 | 69 | 224 | 3.0 | 7.0 | 0.00 | 0.00 | 0.00 | 70 | 1019.0 |
| 20260902155854 | 70 | 260 | 3.0 | 8.0 | 0.00 | 0.00 | 0.00 | 69 | 1019.0 |
| 20260902155748 | 70 | 186 | 2.0 | 9.0 | 0.00 | 0.00 | 0.00 | 70 | 1019.0 |
| 20260902154842 | 70 | 179 | 2.0 | 9.0 | 0.00 | 0.00 | 0.00 | 68 | 1019.0 |
| 20260902154731 | 70 | 168 | 3.0 | 8.0 | 0.00 | 0.00 | 0.00 | 69 | 1019.0 |
| 20260902153817 | 70 | 240 | 3.0 | 10.0 | 0.00 | 0.00 | 0.00 | 68 | 1018.9 |
| 20260902153310 | 70 | 239 | 4.0 | 10.0 | 0.00 | 0.00 | 0.00 | 67 | 1019.0 |
| 20260902152802 | 71 | 220 | 4.0 | 11.0 | 0.00 | 0.00 | 0.00 | 65 | 1018.9 |
| 20260902152300 | 71 | 159 | 4.0 | 11.0 | 0.00 | 0.00 | 0.00 | 65 | 1019.0 |
| 20260902151757 | 71 | 210 | 3.0 | 8.0 | 0.00 | 0.00 | 0.00 | 63 | 1018.9 |
| 20260902151345 | 71 | 219 | 3.0 | 10.0 | 0.00 | 0.00 | 0.00 | 64 | 1019.0 |
| 20260902150839 | 71 | 276 | 4.0 | 10.0 | 0.00 | 0.00 | 0.00 | 63 | 1019.0 |
| 20260902150331 | 71 | 249 | 4.0 | 10.0 | 0.00 | 0.00 | 0.00 | 63 | 1019.0 |
| 20260902145824 | 71 | 182 | 2.0 | 10.0 | 0.00 | 0.00 | 0.00 | 62 | 1019.0 |
| 20260902145715 | 72 | 219 | 2.0 | 9.0 | 0.00 | 0.00 | 0.00 | 63 | 1019.0 |
| 20260902144810 | 72 | 285 | 4.0 | 9.0 | 0.00 | 0.00 | 0.00 | 62 | 1019.0 |
| 20260902144253 | 72 | 208 | 4.0 | 10.0 | 0.00 | 0.00 | 0.00 | 61 | 1019.1 |
| 20260902143751 | 72 | 193 | 4.0 | 10.0 | 0.00 | 0.00 | 0.00 | 61 | 1019.0 |
| 20260902143251 | 72 | 216 | 3.0 | 10.0 | 0.00 | 0.00 | 0.00 | 61 | 1019.0 |
| 20260902142841 | 73 | 159 | 3.0 | 10.0 | 0.00 | 0.00 | 0.00 | 61 | 1019.0 |
| 20260902142334 | 73 | 259 | 3.0 | 8.0 | 0.00 | 0.00 | 0.00 | 62 | 1019.0 |
| 20260902141825 | 73 | 193 | 2.0 | 8.0 | 0.00 | 0.00 | 0.00 | 61 | 1019.1 |
| 20260902141319 | 73 | 252 | 3.0 | 9.0 | 0.00 | 0.00 | 0.00 | 61 | 1019.1 |
| 20260902140812 | 73 | 217 | 3.0 | 9.0 | 0.00 | 0.00 | 0.00 | 62 | 1019.1 |
| 20260902140304 | 72 | 201 | 3.0 | 9.0 | 0.00 | 0.00 | 0.00 | 63 | 1019.1 |
| 20260902135756 | 72 | 222 | 4.0 | 9.0 | 0.00 | 0.00 | 0.00 | 61 | 1019.2 |
| 20260902135251 | 72 | 262 | 2.0 | 7.0 | 0.00 | 0.00 | 0.00 | 63 | 1019.1 |
| 20260902134744 | 72 | 301 | 2.0 | 7.0 | 0.00 | 0.00 | 0.00 | 63 | 1019.0 |
| 20260902134334 | 72 | 244 | 4.0 | 9.0 | 0.00 | 0.00 | 0.00 | 61 | 1019.0 |
| 20260902133826 | 72 | 82 | 4.0 | 9.0 | 0.00 | 0.00 | 0.00 | 63 | 1019.0 |
| 20260902133316 | 72 | 241 | 4.0 | 9.0 | 0.00 | 0.00 | 0.00 | 63 | 1019.1 |
| 20260902132807 | 72 | 238 | 3.0 | 9.0 | 0.00 | 0.00 | 0.00 | 64 | 1019.1 |
| 20260902132656 | 72 | 189 | 2.0 | 9.0 | 0.00 | 0.00 | 0.00 | 66 | 1019.1 |
| 20260902131755 | 72 | 192 | 3.0 | 8.0 | 0.00 | 0.00 | 0.00 | 66 | 1019.1 |
| 20260902131244 | 72 | 203 | 3.0 | 7.0 | 0.00 | 0.00 | 0.00 | 67 | 1019.2 |
| 20260902130738 | 72 | 227 | 4.0 | 13.0 | 0.00 | 0.00 | 0.00 | 65 | 1019.1 |
| 20260902130631 | 72 | 202 | 4.0 | 13.0 | 0.00 | 0.00 | 0.00 | 65 | 1019.2 |
| 20260902125822 | 72 | 193 | 4.0 | 10.0 | 0.00 | 0.00 | 0.00 | 66 | 1019.0 |
| 20260902125312 | 72 | 195 | 5.0 | 10.0 | 0.00 | 0.00 | 0.00 | 64 | 1019.1 |
| 20260902124802 | 72 | 166 | 4.0 | 9.0 | 0.00 | 0.00 | 0.00 | 67 | 1019.0 |
| 20260902124253 | 71 | 139 | 4.0 | 8.0 | 0.00 | 0.00 | 0.00 | 65 | 1019.1 |
| 20260902124140 | 71 | 317 | 1.0 | 7.0 | 0.00 | 0.00 | 0.00 | 68 | 1019.1 |
| 20260902123839 | 71 | 218 | 2.0 | 7.0 | 0.00 | 0.00 | 0.00 | 65 | 1019.1 |
| 20260902122829 | 71 | 20 | 1.0 | 5.0 | 0.00 | 0.00 | 0.00 | 68 | 1019.1 |
| 20260902122323 | 71 | 220 | 1.0 | 5.0 | 0.00 | 0.00 | 0.00 | 67 | 1019.2 |
| 20260902121813 | 71 | 59 | 2.0 | 7.0 | 0.00 | 0.00 | 0.00 | 67 | 1019.2 |
| 20260902121305 | 71 | 253 | 3.0 | 10.0 | 0.00 | 0.00 | 0.00 | 68 | 1019.4 |
| 20260902120801 | 71 | 194 | 4.0 | 12.0 | 0.00 | 0.00 | 0.00 | 68 | 1019.4 |
| 20260902120252 | 71 | 197 | 5.0 | 12.0 | 0.00 | 0.00 | 0.00 | 69 | 1019.4 |
| 20260902115746 | 71 | 260 | 5.0 | 10.0 | 0.00 | 0.00 | 0.00 | 65 | 1019.5 |
| 20260902115237 | 71 | 235 | 5.0 | 10.0 | 0.00 | 0.00 | 0.00 | 68 | 1019.6 |
| 20260902114728 | 70 | 250 | 5.0 | 10.0 | 0.00 | 0.00 | 0.00 | 69 | 1019.7 |
| 20260902114320 | 70 | 212 | 5.0 | 10.0 | 0.00 | 0.00 | 0.00 | 69 | 1019.7 |
| 20260902113812 | 70 | 218 | 4.0 | 10.0 | 0.00 | 0.00 | 0.00 | 69 | 1019.7 |
| 20260902113659 | 70 | 189 | 4.0 | 10.0 | 0.00 | 0.00 | 0.00 | 68 | 1019.7 |
| 20260902112806 | 70 | 236 | 3.0 | 10.0 | 0.00 | 0.00 | 0.00 | 69 | 1019.6 |
| 20260902112247 | 70 | 324 | 3.0 | 12.0 | 0.00 | 0.00 | 0.00 | 70 | 1019.6 |
| 20260902112140 | 70 | 257 | 4.0 | 12.0 | 0.00 | 0.00 | 0.00 | 69 | 1019.5 |
| 20260902111232 | 70 | 201 | 3.0 | 10.0 | 0.00 | 0.00 | 0.00 | 70 | 1019.5 |
| 20260902110739 | 70 | 172 | 2.0 | 8.0 | 0.00 | 0.00 | 0.00 | 71 | 1019.6 |
| 20260902110319 | 70 | 200 | 2.0 | 8.0 | 0.00 | 0.00 | 0.00 | 69 | 1019.6 |
| 20260902105809 | 70 | 235 | 2.0 | 6.0 | 0.00 | 0.00 | 0.00 | 70 | 1019.6 |
| 20260902105300 | 70 | 279 | 2.0 | 8.0 | 0.00 | 0.00 | 0.00 | 71 | 1019.6 |
| 20260902104751 | 70 | 230 | 3.0 | 8.0 | 0.00 | 0.00 | 0.00 | 72 | 1019.6 |
| 20260902104246 | 70 | 222 | 2.0 | 7.0 | 0.00 | 0.00 | 0.00 | 70 | 1019.6 |
| 20260902103737 | 70 | 305 | 3.0 | 9.0 | 0.00 | 0.00 | 0.00 | 71 | 1019.6 |
| 20260902103226 | 70 | 215 | 5.0 | 12.0 | 0.00 | 0.00 | 0.00 | 72 | 1019.6 |
| 20260902102717 | 70 | 264 | 5.0 | 12.0 | 0.00 | 0.00 | 0.00 | 72 | 1019.6 |
| 20260902102308 | 70 | 190 | 5.0 | 12.0 | 0.00 | 0.00 | 0.00 | 72 | 1019.6 |
| 20260902101759 | 69 | 235 | 6.0 | 12.0 | 0.00 | 0.00 | 0.00 | 74 | 1019.6 |
| 20260902101249 | 69 | 170 | 5.0 | 12.0 | 0.00 | 0.00 | 0.00 | 75 | 1019.5 |
| 20260902100741 | 69 | 188 | 5.0 | 10.0 | 0.00 | 0.00 | 0.00 | 75 | 1019.7 |
| 20260902100232 | 68 | 174 | 5.0 | 9.0 | 0.00 | 0.00 | 0.00 | 74 | 1019.7 |
| 20260902100121 | 69 | 260 | 4.0 | 9.0 | 0.00 | 0.00 | 0.00 | 76 | 1019.7 |
| 20260902095213 | 68 | 224 | 4.0 | 8.0 | 0.00 | 0.00 | 0.00 | 77 | 1019.7 |
| 20260902094803 | 68 | 206 | 4.0 | 8.0 | 0.00 | 0.00 | 0.00 | 77 | 1019.7 |
| 20260902094258 | 67 | 185 | 4.0 | 8.0 | 0.00 | 0.00 | 0.00 | 78 | 1019.6 |
| 20260902093749 | 67 | 182 | 4.0 | 9.0 | 0.00 | 0.00 | 0.00 | 78 | 1019.7 |
| 20260902093243 | 67 | 192 | 5.0 | 9.0 | 0.00 | 0.00 | 0.00 | 78 | 1019.7 |
| 20260902092734 | 67 | 181 | 4.0 | 9.0 | 0.00 | 0.00 | 0.00 | 78 | 1019.7 |
| 20260902092238 | 66 | 235 | 4.0 | 9.0 | 0.00 | 0.00 | 0.00 | 80 | 1019.7 |
| 20260902091716 | 66 | 158 | 5.0 | 17.0 | 0.00 | 0.00 | 0.00 | 79 | 1019.7 |
| 20260902091209 | 66 | 256 | 5.0 | 17.0 | 0.00 | 0.00 | 0.00 | 79 | 1019.8 |
| 20260902091001 | 66 | 255 | 4.0 | 12.0 | 0.00 | 0.00 | 0.00 | 79 | 1019.8 |
| 20260902090249 | 66 | 238 | 5.0 | 11.0 | 0.00 | 0.00 | 0.00 | 80 | 1019.7 |
| 20260902085739 | 66 | 213 | 5.0 | 11.0 | 0.00 | 0.00 | 0.00 | 79 | 1019.6 |
| 20260902085230 | 66 | 220 | 4.0 | 10.0 | 0.00 | 0.00 | 0.00 | 80 | 1019.6 |
| 20260902084721 | 66 | 227 | 4.0 | 10.0 | 0.00 | 0.00 | 0.00 | 80 | 1019.7 |
| 20260902084213 | 66 | 202 | 4.0 | 10.0 | 0.00 | 0.00 | 0.00 | 80 | 1019.6 |
| 20260902084103 | 65 | 224 | 3.0 | 8.0 | 0.00 | 0.00 | 0.00 | 80 | 1019.6 |
| 20260902083157 | 65 | 189 | 3.0 | 8.0 | 0.00 | 0.02 | 0.00 | 81 | 1019.6 |
| 20260902082758 | 65 | 181 | 3.0 | 9.0 | 0.00 | 0.03 | 0.00 | 82 | 1019.6 |
| 20260902082238 | 65 | 270 | 3.0 | 9.0 | 0.00 | 0.03 | 0.00 | 82 | 1019.5 |